Leticia, Colombia

9:50 PM COT on September 29, 2016 (GMT -0500)
Alfredo Vasquez Cobo

Weather History for SKLT - November, 2012

Change the Weather History Date:

Friday, November 30, 2012

  Actual Average Record
Temperature  
Mean Temperature 82 °F -  
Max Temperature 92 °F 86 °F 93 °F (1997)
Min Temperature 73 °F 73 °F 71 °F (1998)
Cooling Degree Days 18    
Growing Degree Days 32 (Base 50)    
Moisture  
Dew Point 76 °F    
Average Humidity 91    
Maximum Humidity 100    
Minimum Humidity 64    
Precipitation  
Precipitation 0.04 in - - ()
Sea Level Pressure  
Sea Level Pressure 29.80 in    
Wind  
Wind Speed 1 mph ()    
Max Wind Speed 9 mph    
Max Gust Speed -    
Visibility 6.5 miles    
Events Rain , Thunderstorm    
Averages and records for this station are not official NWS values.
T = Trace of Precipitation, MM = Missing Value Source: Averaged Metar Reports

Daily Weather History Graph

Daily Weather History Graph

Search for Another Location

Airport or City:

Trip Planner

Search our weather history database for the weather conditions in past years. The results will help you decide how hot, cold, wet, or windy it might be!

Date:

Astronomy

Nov. 30, 2012 Rise Set
Actual Time 5:18 AM COT 5:39 PM COT
Civil Twilight 4:55 AM COT 6:01 PM COT
Nautical Twilight 4:29 AM COT 6:27 PM COT
Astronomical Twilight 4:03 AM COT 6:53 PM COT
Moon 7:27 PM COT 6:49 AM COT
Length of Visible Light 13h 05m
Length of Day
12h 20m
Waning Gibbous, 96% of the Moon is Illuminated
Nov 30
Waning Gibbous
Dec 6
Last Quarter
Dec 13
New
Dec 20
First Quarter
Dec 28
Full

Hourly Weather History & Observations

Time (COT) Temp. Heat Index Dew Point Humidity Pressure Visibility Wind Dir Wind Speed Gust Speed Precip Events Conditions
12:00 AM 77.0 °F - 75.2 °F 94% 29.82 in 6.2 mi Calm Calm - N/A   Mostly Cloudy
1:00 AM 76 °F - 75 °F 95% 29.81 in 6 mi Calm Calm - -   Partly Cloudy
1:00 AM 75.2 °F - 75.2 °F 100% 29.80 in 6.2 mi Calm Calm - N/A   Mostly Cloudy
2:00 AM 75.2 °F - 75.2 °F 100% 29.78 in 6.2 mi Calm Calm - N/A   Mostly Cloudy
4:00 AM 75 °F - 74 °F 97% 29.78 in 6 mi Calm Calm - -   Partly Cloudy
4:00 AM 75.2 °F - 75.2 °F 100% 29.78 in 6.2 mi Calm Calm - N/A   Mostly Cloudy
5:00 AM 75.2 °F - 75.2 °F 100% 29.80 in 6.2 mi Calm Calm - N/A Thunderstorm Thunderstorm
6:00 AM 75.2 °F - 75.2 °F 100% 29.82 in 6.2 mi Calm Calm - N/A   Mostly Cloudy
7:00 AM 76 °F - 76 °F 98% 29.85 in 10 mi Calm Calm - -   Partly Cloudy
7:00 AM 77.0 °F - 75.2 °F 94% 29.85 in 6.2 mi Calm Calm - N/A   Mostly Cloudy
8:00 AM 77.0 °F - 75.2 °F 94% 29.85 in 6.2 mi Calm Calm - N/A   Mostly Cloudy
9:00 AM 82.4 °F 92.4 °F 78.8 °F 89% 29.85 in 6.2 mi Calm Calm - N/A   Mostly Cloudy
10:00 AM 86 °F - 78 °F 72% 29.85 in 12 mi Calm Calm - -   Scattered Clouds
10:00 AM 86.0 °F 99.3 °F 78.8 °F 79% 29.84 in 6.2 mi Calm Calm - N/A   Mostly Cloudy
11:00 AM 87.8 °F 102.5 °F 78.8 °F 75% 29.83 in 6.2 mi Variable 2.3 mph - N/A   Mostly Cloudy
12:00 PM 89.6 °F 108.2 °F 80.6 °F 75% 29.79 in 6.2 mi Variable 2.3 mph - N/A   Scattered Clouds
1:00 PM 91 °F - 80 °F 64% 29.75 in 12 mi NE 4.5 mph - -   Mostly Cloudy
1:00 PM 91.4 °F 111.0 °F 80.6 °F 71% 29.75 in 6.2 mi NE 3.5 mph - N/A   Mostly Cloudy
3:00 PM 78.8 °F - 77.0 °F 94% 29.73 in 6.2 mi Calm Calm - N/A   Mostly Cloudy
4:00 PM 79 °F - 77 °F 91% 29.71 in 4 mi South 2.2 mph - - Rain Light Drizzle
4:00 PM 78.8 °F - 77.0 °F 94% 29.71 in 6.2 mi Variable 2.3 mph - N/A   Mostly Cloudy
5:00 PM 78.8 °F - 77.0 °F 94% 29.74 in 6.2 mi Variable 2.3 mph - N/A   Mostly Cloudy
6:00 PM 75.2 °F - 75.2 °F 100% 29.77 in 6.2 mi South 6.9 mph - N/A   Mostly Cloudy
7:00 PM 74 °F - 72 °F 94% 29.79 in 5 mi SSW 8.9 mph - -   Overcast
7:00 PM 75.2 °F - 73.4 °F 94% 29.79 in 5.0 mi SSW 8.1 mph - N/A   Mostly Cloudy
8:00 PM 77.0 °F - 77.0 °F 100% 29.87 in 6.2 mi Variable 3.5 mph - N/A   Scattered Clouds
9:00 PM 75.2 °F - 73.4 °F 94% 29.84 in 6.2 mi Variable 2.3 mph - N/A   Scattered Clouds
10:00 PM 74 °F - 73 °F 95% 29.81 in 5 mi ENE 4.5 mph - -   Overcast
10:00 PM 73.4 °F - 73.4 °F 100% 29.81 in 5.0 mi North 4.6 mph - N/A   Scattered Clouds
11:00 PM 73.4 °F - 71.6 °F 94% 29.82 in 6.2 mi Calm Calm - N/A   Mostly Cloudy